| time (UTC) | temp F | wind direction | speed knots | gust knots | rain 1hr in | rain 24hr in | rain mn in | humidity % | barometer mb |
| 20260502152117 | 75 | 187 | 0.9 | 13.0 | 0.00 | 0.00 | 0.00 | 34 | 1019.1 |
| 20260502151139 | 75 | 186 | 1.7 | 11.3 | 0.00 | 0.00 | 0.00 | 33 | 1019.1 |
| 20260502150131 | 75 | 190 | 2.6 | 10.4 | 0.00 | 0.00 | 0.00 | 33 | 1019.1 |
| 20260502130131 | 75 | 188 | 0.9 | 17.4 | 0.00 | 0.00 | 0.00 | 31 | 1020.5 |
| 20260502123122 | 75 | 232 | 0.9 | 18.2 | 0.00 | 0.00 | 0.00 | 31 | 1020.8 |
| 20260502122139 | 74 | 172 | 1.7 | 17.4 | 0.00 | 0.00 | 0.00 | 33 | 1020.9 |
| 20260502121113 | 75 | 201 | 5.2 | 13.9 | 0.00 | 0.00 | 0.00 | 32 | 1021.1 |
| 20260502120131 | 74 | 195 | 3.5 | 15.6 | 0.00 | 0.00 | 0.00 | 32 | 1021.2 |
| 20260502115138 | 74 | 191 | 1.7 | 15.6 | 0.00 | 0.00 | 0.00 | 32 | 1021.4 |
| 20260502114125 | 74 | 197 | 3.5 | 12.2 | 0.00 | 0.00 | 0.00 | 32 | 1021.4 |
| 20260502113112 | 74 | 201 | 0.9 | 11.3 | 0.00 | 0.00 | 0.00 | 31 | 1021.6 |
| 20260502112105 | 74 | 196 | 2.6 | 11.3 | 0.00 | 0.00 | 0.00 | 32 | 1021.7 |
| 20260502111101 | 74 | 223 | 0.9 | 11.3 | 0.00 | 0.00 | 0.00 | 33 | 1021.9 |
| 20260502110134 | 73 | 211 | 1.7 | 12.2 | 0.00 | 0.00 | 0.00 | 33 | 1022.0 |
| 20260502105120 | 73 | 202 | 0.0 | 10.4 | 0.00 | 0.00 | 0.00 | 34 | 1022.1 |
| 20260502104124 | 73 | 217 | 1.7 | 9.6 | 0.00 | 0.00 | 0.00 | 33 | 1022.2 |
| 20260502103132 | 73 | 193 | 0.9 | 8.7 | 0.00 | 0.00 | 0.00 | 33 | 1022.2 |
| 20260502102103 | 73 | 216 | 0.0 | 13.0 | 0.00 | 0.00 | 0.00 | 33 | 1022.5 |
| 20260502101120 | 73 | 255 | 0.9 | 13.0 | 0.00 | 0.00 | 0.00 | 32 | 1022.6 |
| 20260502100136 | 72 | 202 | 2.6 | 11.3 | 0.00 | 0.00 | 0.00 | 33 | 1022.8 |
| 20260502091127 | 71 | 181 | 0.9 | 6.1 | 0.00 | 0.00 | 0.00 | 35 | 1023.1 |
| 20260502090118 | 71 | 171 | 0.0 | 4.3 | 0.00 | 0.00 | 0.00 | 38 | 1023.3 |
| 20260502071108 | 64 | 329 | 0.0 | 0.0 | 0.00 | 0.00 | 0.00 | 42 | 1024.0 |
| 20260502070116 | 64 | 329 | 0.0 | 0.0 | 0.00 | 0.00 | 0.00 | 44 | 1024.1 |
| 20260502065107 | 63 | 329 | 0.0 | 0.0 | 0.00 | 0.00 | 0.00 | 46 | 1024.2 |
| 20260502064146 | 60 | 329 | 0.0 | 0.0 | 0.00 | 0.00 | 0.00 | 52 | 1024.3 |
| 20260502063108 | 58 | 329 | 0.0 | 0.0 | 0.00 | 0.00 | 0.00 | 55 | 1024.4 |
| 20260502062108 | 57 | 330 | 0.0 | 0.9 | 0.00 | 0.00 | 0.00 | 57 | 1024.4 |
| 20260502061113 | 56 | 315 | 0.0 | 0.0 | 0.00 | 0.00 | 0.00 | 57 | 1024.4 |
| 20260502060143 | 55 | 315 | 0.0 | 0.0 | 0.00 | 0.00 | 0.00 | 58 | 1024.4 |
| 20260502055134 | 54 | 316 | 0.0 | 0.0 | 0.00 | 0.00 | 0.00 | 61 | 1024.6 |
| 20260502054126 | 53 | 316 | 0.0 | 0.0 | 0.00 | 0.00 | 0.00 | 62 | 1024.6 |
| 20260502045101 | 51 | 306 | 0.0 | 0.0 | 0.00 | 0.00 | 0.00 | 64 | 1024.4 |
| 20260502044118 | 51 | 305 | 0.0 | 0.0 | 0.00 | 0.00 | 0.00 | 64 | 1024.4 |
| 20260502043137 | 50 | 304 | 0.0 | 0.0 | 0.00 | 0.00 | 0.00 | 65 | 1024.4 |
| 20260502042146 | 50 | 303 | 0.0 | 0.0 | 0.00 | 0.00 | 0.00 | 66 | 1024.4 |
| 20260502041127 | 50 | 297 | 0.0 | 0.0 | 0.00 | 0.00 | 0.00 | 66 | 1024.4 |
| 20260502040144 | 50 | 295 | 0.0 | 0.0 | 0.00 | 0.00 | 0.00 | 66 | 1024.4 |
| 20260502035110 | 50 | 295 | 0.0 | 0.0 | 0.00 | 0.00 | 0.00 | 66 | 1024.4 |
| 20260502034141 | 49 | 295 | 0.0 | 0.0 | 0.00 | 0.00 | 0.00 | 65 | 1024.3 |
| 20260502033117 | 50 | 290 | 0.0 | 0.0 | 0.00 | 0.00 | 0.00 | 65 | 1024.3 |
| 20260502032105 | 50 | 290 | 0.0 | 0.0 | 0.00 | 0.00 | 0.00 | 65 | 1024.3 |
| 20260502031103 | 50 | 290 | 0.0 | 0.0 | 0.00 | 0.00 | 0.00 | 64 | 1024.3 |
| 20260502030136 | 50 | 286 | 0.0 | 0.0 | 0.00 | 0.00 | 0.00 | 64 | 1024.3 |
| 20260502025143 | 51 | 286 | 0.0 | 0.0 | 0.00 | 0.00 | 0.00 | 63 | 1024.3 |
| 20260502024130 | 51 | 302 | 0.0 | 0.9 | 0.00 | 0.00 | 0.00 | 62 | 1024.3 |
| 20260502023112 | 51 | 318 | 0.0 | 0.0 | 0.00 | 0.00 | 0.00 | 63 | 1024.3 |
| 20260502022142 | 51 | 301 | 0.0 | 1.7 | 0.00 | 0.00 | 0.00 | 62 | 1024.4 |